Theta_e
287 287 287 287 287 287 287 287 287 287 287 287 287 287 287 287 287 287 287 287 288 288 288 288 288 288 288 288 288 288 288 288 288 287 285 285 285 285 286 285 284 284 284 283 283 283 283 283 283 282 282 281 281 280 279 279 279 279 278 278 279 278 278 279 279 279 279 277 276 276 276 276 276 276 276 276 276 276 276 276 276 276 276 276 276
286 287 287 287 287 287 287 287 287 287 287 287 287 287 287 287 287 287 287 288 288 288 288 288 288 288 288 288 288 288 288 287 287 287 286 285 285 285 285 285 284 284 284 283 283 283 283 283 282 282 281 281 281 280 279 279 278 278 278 278 278 278 278 278 278 279 279 278 277 276 276 276 276 276 276 276 276 276 276 276 276 275 275 275 276
286 287 287 287 287 287 287 287 287 287 287 287 287 287 287 287 287 287 288 288 288 288 288 288 288 288 288 288 288 288 287 287 287 287 286 285 284 284 284 284 284 284 283 283 283 283 282 282 282 281 281 280 280 280 279 279 278 278 278 278 278 278 277 277 278 278 279 278 278 277 277 276 276 276 276 276 276 276 276 276 275 275 275 275 276
286 286 286 286 287 287 287 287 287 287 287 287 287 287 287 287 287 287 288 288 288 288 288 288 288 288 288 288 288 288 287 287 286 286 286 286 285 284 284 284 284 283 283 283 283 282 282 282 281 281 280 280 280 279 279 278 278 278 278 277 277 277 277 277 277 278 278 278 278 277 277 277 276 276 276 276 276 275 275 275 275 275 275 275 275
286 286 286 286 286 286 286 286 286 287 287 287 287 287 287 288 288 288 288 288 288 288 288 288 288 288 288 288 288 288 288 287 286 286 286 286 285 284 283 283 283 283 283 283 283 282 282 281 281 281 280 279 279 278 278 278 278 278 277 277 277 277 277 277 277 277 277 277 277 277 277 276 276 276 276 276 276 276 276 275 275 276 276 276 276
285 286 286 286 286 286 286 286 286 286 286 286 287 287 287 287 288 288 288 288 288 288 288 288 288 288 288 288 288 288 288 287 286 286 286 285 285 284 283 283 283 283 282 282 282 282 281 281 281 280 280 279 279 278 278 278 278 278 277 277 277 277 277 277 276 276 277 277 277 277 277 277 276 276 276 276 276 276 276 276 276 276 276 276 276
285 286 286 286 286 285 285 285 285 285 285 286 286 287 287 287 288 288 288 288 288 288 288 288 288 288 288 288 288 288 287 287 286 286 285 285 284 284 283 282 282 282 282 282 282 281 281 281 281 280 280 279 279 278 278 278 277 277 277 277 277 277 277 277 277 277 277 277 277 277 277 277 277 276 276 276 276 276 276 276 277 277 276 276 276
285 285 285 285 285 284 284 284 284 284 285 285 286 286 287 287 287 288 288 288 288 288 288 288 288 288 288 288 288 287 287 287 286 286 285 285 284 284 283 282 282 282 282 281 281 281 281 280 280 280 280 279 279 278 278 278 277 277 277 277 277 277 277 277 277 277 277 277 277 277 277 277 277 277 276 276 276 276 276 276 277 277 276 276 276
284 284 284 284 284 283 283 283 283 283 284 285 285 286 286 287 287 288 288 288 288 288 288 288 288 288 288 288 287 287 287 287 286 286 285 285 284 283 282 282 282 281 281 281 281 281 280 280 280 279 279 279 279 278 278 278 277 277 277 276 276 277 277 277 277 277 277 277 277 278 278 278 277 277 277 277 276 277 277 276 276 276 276 275 275
283 283 283 282 282 282 282 282 282 283 283 284 285 286 286 287 287 287 288 288 288 288 288 288 287 287 288 288 287 287 287 287 286 285 285 285 284 283 282 282 282 281 281 281 281 280 280 280 279 279 279 279 278 278 278 278 277 277 277 276 276 276 276 277 277 277 277 277 278 278 278 278 277 277 277 277 276 276 276 276 276 276 275 275 275
282 282 281 281 280 280 281 281 282 283 283 284 284 285 286 286 287 287 287 287 288 287 287 287 287 287 287 287 287 287 287 287 286 285 285 285 284 283 282 282 281 281 281 281 280 280 280 279 279 279 279 279 278 278 278 278 278 277 277 277 276 276 276 277 277 277 277 277 278 278 278 278 277 277 277 276 276 276 276 276 275 275 275 274 274
281 281 280 280 280 280 281 282 282 283 283 283 283 284 285 286 287 287 287 287 287 287 287 287 287 287 287 287 287 287 287 287 286 286 286 285 285 284 282 282 282 281 281 281 281 280 280 279 279 279 279 279 279 278 278 278 278 277 277 276 276 276 276 276 276 277 277 277 277 277 277 277 277 276 276 276 276 276 276 275 275 275 274 274 274
280 279 279 279 280 280 281 281 282 282 282 282 283 284 285 286 287 287 287 287 287 287 287 287 287 287 287 287 287 287 286 287 286 286 286 285 285 285 283 282 281 281 281 281 281 280 280 279 279 278 278 278 278 278 278 278 278 278 277 276 276 276 276 276 276 276 276 277 277 277 277 277 276 276 276 276 276 275 275 275 275 274 274 274 274
278 278 279 279 279 279 280 280 281 281 282 282 282 284 285 286 286 287 287 287 287 287 287 287 287 288 288 288 288 287 287 287 286 286 286 285 285 285 283 282 281 281 281 281 280 280 279 279 279 278 278 278 278 278 278 278 278 278 277 277 276 276 276 276 276 276 276 276 276 276 276 276 276 276 275 275 274 274 274 274 274 274 274 273 273
278 278 278 278 278 279 279 279 280 281 281 282 283 284 286 286 286 286 286 286 287 287 287 287 287 287 287 287 287 287 287 287 286 286 286 285 285 285 284 282 281 281 281 281 280 280 279 279 279 278 277 277 278 278 277 277 277 277 277 277 277 276 276 276 276 276 276 276 275 275 275 275 275 275 275 274 273 273 273 273 273 273 272 272 272
277 277 277 277 278 278 278 279 279 280 280 281 283 285 286 286 286 286 286 286 286 286 286 287 287 287 287 287 287 287 286 286 286 286 286 285 285 285 284 282 281 281 281 280 280 279 279 279 278 278 277 277 277 278 277 277 277 278 278 277 277 277 277 277 277 276 276 276 276 276 275 275 275 275 274 274 273 273 272 272 272 271 271 271 271
276 276 276 277 277 276 277 277 278 279 280 281 283 284 285 286 286 286 286 286 286 286 286 286 286 287 287 287 287 287 286 286 285 285 285 285 284 284 284 282 281 280 280 280 279 279 279 278 278 278 277 277 277 278 278 277 277 277 278 277 277 277 277 277 277 276 276 276 276 276 275 275 274 274 274 273 273 272 271 271 271 271 271 270 270
275 276 276 276 275 275 275 276 277 279 280 281 282 283 285 286 286 286 286 286 286 286 286 286 286 287 287 287 286 286 286 286 285 285 284 284 284 284 283 281 280 280 279 279 279 279 278 278 278 277 277 276 277 278 278 277 277 277 277 277 277 276 276 276 276 276 276 276 276 275 275 275 274 274 273 273 272 271 270 270 269 268 268 269 269
275 275 275 274 274 274 274 275 277 278 280 281 281 283 284 285 286 286 286 286 286 286 286 286 286 286 286 286 286 286 286 285 285 284 284 283 284 284 282 280 280 279 279 278 278 278 278 278 278 277 277 277 277 278 278 277 276 277 277 276 276 276 275 276 276 276 275 275 274 274 274 273 273 273 272 272 271 271 269 268 267 266 266 267 267
274 275 274 273 273 273 273 275 276 278 279 280 281 283 284 285 286 286 286 286 286 286 286 286 286 286 286 286 286 286 285 284 283 283 283 283 284 283 281 280 279 279 278 278 278 277 277 278 278 277 277 277 277 279 279 277 276 276 276 276 276 275 275 275 275 275 274 273 273 273 272 272 272 271 271 270 270 269 268 267 266 264 264 265 265
273 273 273 272 272 272 273 274 275 277 279 280 282 283 285 285 286 285 286 286 286 286 286 286 286 286 286 286 285 285 284 283 282 282 282 282 283 283 281 280 280 279 278 278 277 277 277 277 278 277 277 277 277 279 279 278 276 276 276 276 276 275 275 275 274 274 273 273 273 272 272 271 271 270 269 269 268 268 267 267 266 264 263 263 264
271 272 272 271 271 271 272 273 274 276 278 280 283 284 285 285 285 285 286 286 286 286 286 286 286 286 285 284 284 283 282 282 281 281 281 282 283 283 282 281 280 279 278 277 277 277 277 277 277 278 278 277 277 279 279 278 276 276 276 275 275 275 274 274 273 273 273 272 272 271 271 270 269 269 269 268 268 268 267 266 266 265 264 263 263
270 271 271 270 270 271 271 273 274 276 278 281 284 285 285 285 285 286 286 286 286 287 287 286 285 284 283 283 282 281 281 280 280 280 281 281 283 283 282 281 280 279 278 277 277 277 277 277 277 278 278 278 278 279 279 278 277 276 276 275 275 275 274 273 273 273 272 271 270 270 269 269 268 268 268 268 268 268 267 266 266 266 265 264 263
270 270 270 270 270 270 271 272 274 276 279 282 285 285 285 285 286 286 286 287 287 287 286 285 284 283 282 282 281 281 280 279 280 280 280 281 282 283 282 281 280 279 279 278 277 277 277 277 277 278 278 278 278 279 279 279 277 276 276 276 275 274 274 273 273 272 271 270 269 269 268 268 268 268 268 268 268 268 268 267 267 266 265 264 264
269 269 269 269 269 270 271 273 275 278 281 284 285 285 286 286 286 286 287 286 286 286 285 284 283 282 282 281 281 280 279 279 279 280 280 280 281 282 282 281 280 280 279 278 278 278 278 277 277 278 278 278 279 279 279 279 278 277 277 276 275 274 273 272 272 271 270 269 268 268 268 268 268 268 268 268 268 267 267 268 267 266 265 264 264
268 268 268 268 269 269 271 273 276 278 280 283 285 285 286 286 286 286 286 286 286 285 283 282 281 281 281 280 280 279 279 278 278 279 280 280 280 282 282 281 280 280 280 279 279 278 278 277 277 278 279 279 279 279 279 278 278 277 276 275 274 274 273 272 271 270 269 268 268 268 267 268 268 268 268 268 268 267 267 267 265 264 263 262 262
267 267 268 268 268 269 271 273 275 276 278 280 283 284 285 286 286 286 286 286 285 284 282 281 281 280 280 280 279 279 278 278 278 278 279 280 280 281 282 281 280 280 279 278 278 278 278 278 278 279 279 278 278 278 277 277 276 275 275 274 274 273 272 271 270 269 268 268 268 267 268 268 268 268 267 268 267 267 266 265 264 263 262 261 261
267 267 267 267 268 269 271 272 274 275 276 277 280 282 284 285 286 286 286 285 283 282 282 281 280 280 280 279 279 279 278 278 277 278 278 279 280 281 281 281 280 279 278 278 277 278 278 278 278 277 277 276 276 275 275 275 274 274 273 273 272 271 271 270 269 268 268 268 268 267 268 268 268 267 267 268 267 266 265 264 263 262 262 261 262
266 267 267 267 268 269 270 272 273 274 275 275 277 280 282 284 285 285 285 284 282 281 281 281 281 280 280 279 279 279 279 278 278 278 278 279 279 280 281 281 279 278 278 278 277 276 276 275 275 275 274 273 272 272 272 272 272 272 272 271 271 270 269 268 267 267 267 267 267 267 268 267 267 268 268 267 266 265 265 264 263 262 261 262 263
266 266 267 267 267 268 270 271 272 272 273 274 275 277 280 284 285 284 284 283 281 280 281 281 281 280 280 279 279 279 279 278 278 278 278 279 279 280 281 280 279 278 278 277 277 275 274 273 273 272 271 271 270 270 270 270 269 269 269 269 268 268 267 267 267 267 267 267 267 268 268 267 267 267 267 266 266 265 265 264 262 261 261 262 263
266 266 266 266 267 268 269 270 271 271 272 273 274 276 279 283 284 283 283 282 280 280 280 279 279 280 280 280 280 279 279 278 278 278 279 279 279 280 280 280 279 278 277 277 276 274 273 273 272 271 270 270 270 269 269 269 268 267 266 266 266 266 266 266 267 267 267 267 267 267 267 267 267 267 266 266 266 265 265 264 263 262 262 263 263
265 266 266 266 267 268 269 269 270 271 271 272 273 275 278 281 283 283 282 281 280 279 278 277 277 278 279 280 280 279 279 279 279 279 279 279 280 280 280 280 279 278 277 276 275 274 273 272 271 270 270 270 269 269 269 269 268 267 266 265 265 265 266 266 266 267 267 267 267 267 267 267 267 266 266 266 266 265 264 263 263 262 262 263 263
265 266 266 266 267 267 268 269 269 270 271 271 273 274 277 280 282 282 281 280 279 278 277 276 276 276 277 279 280 280 279 279 279 279 279 280 280 280 280 280 279 278 277 276 274 273 272 272 271 271 271 270 269 268 268 268 268 267 266 265 265 266 266 266 266 266 266 267 267 267 267 267 266 266 266 266 265 264 264 263 262 262 262 263 263
265 266 266 266 266 267 267 268 269 269 270 271 272 274 276 278 281 281 280 279 278 277 276 275 275 276 277 279 280 280 280 279 280 280 280 280 280 281 280 280 279 277 276 275 273 272 272 272 271 271 271 270 269 268 268 268 267 267 266 266 266 266 266 266 266 266 266 266 267 267 267 266 266 266 266 265 265 264 263 262 262 261 262 262 262
266 266 266 266 266 267 267 268 269 269 270 271 272 274 275 278 280 280 279 277 277 277 276 275 275 276 277 279 280 280 280 280 280 280 280 280 280 281 280 279 277 276 275 274 273 273 272 271 271 271 270 269 268 268 268 268 267 266 266 266 266 266 265 265 265 265 266 267 267 267 266 266 266 266 265 265 264 263 262 262 261 261 261 261 261
266 266 266 266 266 267 267 268 269 269 270 271 272 273 275 277 279 280 278 277 276 276 275 275 275 276 277 279 280 281 280 280 280 280 280 280 281 280 278 277 275 274 273 273 273 272 272 271 271 270 269 269 269 269 269 268 267 266 266 266 266 266 265 265 265 266 266 266 266 266 266 266 266 265 265 264 264 263 262 262 261 261 260 260 260
266 266 266 266 267 267 268 268 269 269 270 271 272 273 275 276 278 279 278 276 276 275 275 275 276 277 278 279 280 281 280 280 280 280 280 281 280 279 277 275 274 273 273 272 272 272 271 271 270 270 270 270 270 269 268 267 267 266 266 266 266 266 265 265 266 266 266 266 266 266 266 265 265 265 264 264 263 263 262 262 262 261 261 260 260
266 266 266 267 267 267 268 269 269 269 270 271 272 273 274 276 278 279 278 276 275 275 274 275 276 277 278 279 280 280 280 280 281 281 280 280 279 277 275 274 273 273 272 272 271 271 270 270 270 270 271 271 270 269 268 267 267 266 266 266 266 266 265 265 266 266 266 266 266 266 265 265 265 265 265 264 263 263 263 262 262 261 261 260 260
266 266 267 267 267 268 268 269 269 269 270 271 272 273 274 275 277 279 278 276 276 275 274 275 276 276 277 279 280 280 280 280 279 279 278 277 277 276 275 274 273 272 272 271 271 270 270 269 270 270 271 271 270 269 268 267 267 266 266 266 265 264 265 265 266 266 265 265 265 265 265 265 264 264 264 264 263 263 263 262 262 261 260 260 260
266 267 267 267 268 268 269 269 269 269 270 271 271 272 273 275 277 278 277 276 275 275 275 275 275 276 277 279 280 280 280 279 277 276 276 275 275 275 275 274 273 272 271 271 270 270 270 270 270 271 271 270 269 268 268 267 267 267 267 266 265 265 265 266 266 266 265 265 265 264 264 264 264 264 264 264 263 263 262 262 262 261 260 260 260
267 267 268 268 268 268 269 269 269 270 270 271 271 272 274 275 276 277 277 275 275 275 275 274 275 276 278 279 279 279 279 278 277 276 275 275 275 274 274 274 274 273 272 271 271 271 271 272 272 272 271 270 269 268 268 268 267 267 267 266 265 266 267 266 266 266 265 265 264 264 264 264 264 264 264 263 263 263 263 262 262 261 260 260 260
267 268 268 268 268 269 269 269 270 270 270 271 272 273 274 274 275 276 276 275 275 274 274 274 275 276 278 279 279 278 278 277 276 275 275 275 275 274 274 273 274 274 274 273 273 273 274 274 273 272 271 270 269 269 268 268 268 268 267 266 266 267 267 266 266 266 265 264 264 264 264 264 263 263 263 263 263 263 263 262 262 261 261 260 260
267 268 268 268 268 269 269 269 270 271 271 272 273 273 274 275 276 276 275 274 274 274 274 274 275 275 276 277 278 278 277 276 275 275 274 274 274 273 273 273 273 274 275 274 274 275 275 274 274 273 272 270 269 269 269 269 269 268 268 267 267 267 267 267 266 266 265 264 264 264 264 263 263 263 263 263 263 263 263 263 262 262 261 260 260
268 268 268 268 269 269 270 270 271 271 272 273 273 274 275 276 276 276 275 274 274 273 273 274 274 275 275 276 276 276 276 275 274 274 273 273 272 272 272 272 273 274 275 275 275 275 275 274 274 273 272 271 270 269 269 269 269 269 268 268 268 267 267 267 267 266 265 265 264 264 263 263 263 263 263 263 263 263 263 262 262 261 261 260 259
267 268 268 268 269 269 270 271 272 272 273 274 274 275 276 277 276 275 274 274 273 273 273 273 274 275 275 275 275 274 274 274 273 272 271 271 271 271 271 272 273 274 275 275 275 274 274 274 274 273 272 270 269 269 269 269 269 269 268 268 268 268 268 268 267 266 265 265 264 264 264 264 264 264 263 263 263 263 262 262 262 261 261 260 259
267 268 268 269 269 270 270 271 272 273 273 274 275 276 276 276 275 274 274 273 273 273 273 273 274 274 274 274 273 273 273 272 271 271 270 270 270 270 272 273 273 274 275 275 274 274 273 273 273 273 271 270 269 269 268 268 268 268 268 268 268 268 267 267 266 266 265 264 264 264 264 264 264 264 263 263 263 263 263 262 262 261 260 259 259
267 268 268 269 269 270 271 271 272 272 273 274 276 276 275 275 274 273 273 273 273 272 272 273 273 274 273 273 273 272 272 271 270 270 270 270 270 271 272 273 274 274 274 274 274 273 273 273 272 272 270 270 269 268 268 268 268 268 267 267 267 267 266 266 266 265 265 264 264 264 264 264 264 264 264 263 263 263 263 262 262 261 260 259 259
267 268 269 269 269 270 270 271 271 272 272 274 275 275 274 274 273 273 273 273 272 272 272 273 273 273 272 272 271 271 270 270 269 269 270 270 270 271 272 273 273 274 274 273 273 272 271 271 271 270 269 269 269 268 268 268 268 267 267 266 266 266 266 266 265 265 265 265 264 264 264 264 264 264 264 263 263 263 262 261 261 260 260 259 259
267 268 269 269 269 269 270 270 271 271 272 273 275 275 274 274 273 273 273 273 272 272 272 273 273 272 271 271 270 270 269 269 269 269 270 270 271 272 273 272 273 273 272 272 272 271 270 270 270 269 269 269 268 268 268 268 268 267 267 267 266 266 266 265 265 265 265 265 265 265 265 264 264 264 263 263 263 262 262 261 260 260 259 259 259
267 268 268 268 269 269 269 270 270 271 272 272 273 274 274 274 273 273 272 272 272 272 272 272 272 271 270 270 269 269 269 269 269 269 270 271 272 272 272 272 272 271 271 271 270 270 269 269 269 269 268 268 268 268 268 268 268 267 267 266 266 266 265 265 265 265 265 265 264 264 264 264 264 263 263 263 262 262 261 260 260 260 259 259 258
267 267 268 268 268 269 269 270 270 271 271 271 272 273 273 273 273 272 272 272 272 272 272 271 271 270 270 269 269 269 269 269 269 270 270 271 272 272 271 271 271 270 270 270 269 269 269 269 269 269 268 268 268 268 268 268 267 267 266 266 266 265 265 265 265 265 264 264 264 264 264 264 263 263 262 262 262 261 261 260 260 259 259 259 258
Wind_Speed
28 28 27 26 25 25 25 25 25 25 25 25 25 25 23 22 22 22 21 21 20 21 21 21 21 20 20 22 23 24 26 28 28 28 27 27 26 26 26 25 27 27 24 29 37 39 38 38 39 36 34 35 36 35 33 31 28 24 21 20 19 18 18 15 9 7 7 10 10 9 11 12 11 12 12 13 13 14 15 17 17 18 19 19 20
28 28 27 25 25 24 24 24 24 24 25 25 26 26 25 24 23 23 22 22 21 22 22 22 21 21 20 21 21 21 23 26 27 27 28 29 28 26 26 25 27 26 25 30 38 39 37 36 38 39 38 37 37 36 34 33 30 26 22 21 20 19 20 18 12 9 8 10 11 11 11 12 12 13 13 14 14 14 15 16 17 18 19 19 20
27 27 26 24 24 24 23 23 23 23 24 24 25 25 26 26 25 24 24 23 22 22 23 22 22 22 22 22 22 21 22 22 24 27 29 31 30 28 26 26 26 26 28 33 39 38 36 35 37 39 38 37 36 35 35 35 33 30 26 22 22 21 21 21 16 12 10 10 12 12 12 13 13 13 13 14 14 14 16 17 18 19 19 19 20
27 26 25 24 23 22 23 23 23 23 22 23 24 25 26 26 26 26 25 24 22 22 23 22 22 22 22 23 23 23 22 21 23 26 29 31 32 30 29 28 26 29 34 38 38 36 35 35 35 37 37 37 37 35 34 34 32 30 27 23 23 21 20 21 18 14 12 11 12 12 12 12 12 12 12 13 15 16 17 18 19 20 20 20 21
28 27 25 24 23 22 22 22 22 22 22 23 24 25 26 26 26 26 24 24 23 23 23 22 22 22 22 23 24 25 24 23 23 25 27 30 32 33 34 32 30 33 37 39 38 35 35 36 35 34 36 37 37 36 34 34 33 32 30 25 23 21 19 19 19 16 14 12 11 12 12 11 12 12 13 14 15 16 17 18 19 19 20 20 21
28 27 25 24 24 24 23 22 22 23 24 25 25 25 25 25 26 26 25 25 25 25 23 22 22 22 22 23 24 25 27 25 24 25 26 28 32 35 36 35 34 34 35 36 37 35 36 37 35 35 36 37 38 37 35 35 35 33 31 26 21 20 19 18 18 17 16 14 13 12 12 12 13 13 14 15 15 15 15 17 17 17 19 20 20
29 27 25 24 24 24 24 24 25 25 25 26 26 26 25 25 26 26 26 26 25 24 23 23 23 23 23 24 24 25 27 26 24 24 25 27 30 33 34 36 36 35 34 35 35 35 36 37 36 37 39 39 39 39 37 37 36 34 32 28 23 21 19 18 18 17 16 15 14 13 13 13 13 13 13 13 14 15 15 16 15 15 15 17 18
29 26 24 24 25 26 27 27 28 28 28 28 27 26 25 25 25 25 25 25 24 23 23 24 25 24 23 24 24 25 26 25 24 25 27 29 30 31 32 34 35 36 37 36 34 34 36 38 38 39 40 39 39 40 39 39 38 34 30 29 27 22 19 18 17 17 16 14 13 13 13 13 13 13 12 12 13 14 14 14 14 14 14 16 18
26 24 24 26 27 28 30 30 31 30 30 29 28 26 25 25 24 24 24 23 23 24 25 25 26 26 25 24 23 23 24 24 23 25 30 32 31 30 32 33 34 35 36 36 35 34 34 37 38 37 38 39 38 39 39 40 41 35 31 31 29 23 19 18 17 16 15 14 13 13 13 12 13 12 12 13 13 12 12 14 15 16 17 19 20
25 24 26 28 30 31 32 32 31 30 29 28 27 26 26 25 24 24 25 25 24 24 25 26 26 26 25 23 22 22 23 23 23 26 29 30 30 30 30 31 32 33 34 35 35 34 33 34 35 35 36 37 38 39 38 36 38 38 37 37 34 27 21 19 17 17 15 14 14 14 11 11 13 13 12 12 12 12 13 14 16 17 18 19 20
28 28 30 33 33 33 33 32 30 28 26 25 26 26 26 25 25 25 26 26 25 25 25 26 26 25 24 22 21 21 22 22 23 25 26 26 28 30 29 28 28 30 34 34 35 35 33 32 33 33 34 34 34 35 33 30 31 35 38 39 39 35 29 22 18 17 16 14 14 14 12 12 12 12 12 11 12 13 14 14 15 17 17 16 16
31 32 33 33 33 31 30 29 27 25 24 25 26 27 26 26 25 26 26 26 25 25 25 25 25 24 24 24 24 24 23 23 24 24 25 25 28 29 30 28 26 27 33 36 36 36 34 32 32 33 32 32 33 32 30 28 27 30 34 36 37 36 34 29 23 20 17 15 14 14 13 12 12 12 12 12 12 11 12 13 15 17 19 18 18
30 31 31 30 30 29 28 27 25 25 25 26 27 27 26 26 25 24 25 24 24 23 23 23 23 23 23 25 26 26 24 24 24 24 24 25 27 28 29 29 27 27 32 37 36 35 36 34 31 31 31 30 31 32 31 29 26 27 29 31 31 30 31 29 27 24 20 16 13 13 13 12 11 11 10 8 7 7 10 14 16 19 21 20 21
27 28 27 27 28 27 27 26 26 26 26 27 28 27 26 25 24 22 22 22 22 22 22 21 20 21 23 23 24 25 24 23 24 24 24 25 27 30 29 28 28 27 31 36 37 35 37 36 33 32 31 29 29 30 31 29 26 26 27 26 24 24 25 25 24 23 22 18 15 14 13 12 11 10 9 8 8 10 12 14 16 18 21 21 23
25 25 26 27 27 26 26 26 26 27 27 27 29 26 22 21 21 20 20 20 20 20 20 19 18 19 22 22 22 23 23 22 22 22 23 24 25 30 29 26 25 26 29 35 36 35 36 36 34 33 32 30 28 29 31 30 27 25 25 24 22 21 22 24 24 22 19 17 17 16 15 15 13 13 12 11 10 11 11 13 16 19 20 23 26
25 26 27 26 26 27 28 29 29 29 28 27 26 23 19 19 19 19 19 19 19 18 18 18 18 19 20 21 22 22 22 23 22 21 22 22 23 27 27 24 24 25 27 29 32 32 33 35 34 32 33 31 28 28 30 31 29 25 23 23 21 20 20 21 21 21 19 18 18 17 16 14 12 11 9 8 8 10 12 15 17 17 18 20 21
27 26 25 24 27 32 34 33 31 29 27 26 24 22 20 20 18 18 18 18 18 18 18 18 18 19 20 20 21 22 23 22 20 19 19 20 22 24 22 21 24 25 25 26 28 27 27 32 34 32 31 31 27 27 29 31 30 27 24 22 22 21 20 20 19 18 18 17 16 14 13 11 10 10 11 12 14 15 14 14 13 13 14 13 13
26 25 24 26 31 35 34 32 29 28 26 24 23 23 22 20 18 17 17 18 18 18 18 18 18 19 20 21 21 22 23 21 18 17 17 18 21 22 19 21 23 24 23 24 26 24 22 28 32 31 31 30 27 27 29 30 31 30 28 25 23 20 20 21 22 19 16 15 15 15 14 14 14 16 17 17 19 19 18 18 16 13 13 12 11
27 26 26 29 33 34 32 30 27 26 25 24 23 23 22 19 18 17 17 18 18 18 18 18 19 20 22 24 25 23 22 21 19 18 16 17 20 20 19 21 21 21 22 21 21 20 19 22 26 29 30 29 27 27 29 30 31 32 30 25 19 17 19 22 23 21 17 16 16 16 16 17 17 18 19 19 22 23 23 24 22 17 13 14 13
28 27 27 30 34 34 32 30 28 26 25 24 24 23 21 18 17 17 17 17 17 18 18 18 20 22 22 24 24 21 19 20 19 17 15 17 19 18 20 21 20 20 21 21 19 17 16 18 21 25 27 27 26 27 29 31 31 31 29 23 17 19 22 22 21 19 16 15 15 15 15 15 16 17 18 19 21 22 22 22 22 19 15 14 13
29 29 29 32 35 35 33 31 28 27 26 25 24 22 19 16 16 17 17 17 17 18 18 20 22 21 19 19 18 17 18 18 17 15 14 16 18 19 20 21 25 25 21 19 18 15 14 16 18 22 25 26 27 27 28 30 30 30 30 26 22 23 24 20 18 16 15 14 14 13 13 14 14 14 15 16 17 18 18 19 20 20 18 16 14
30 30 30 32 35 36 35 32 29 28 27 25 22 18 16 15 16 16 16 17 17 18 20 21 18 15 13 13 14 15 16 16 14 13 13 14 16 19 21 23 28 28 20 16 14 13 15 17 18 21 25 25 27 28 27 27 28 28 29 26 22 20 20 19 17 15 14 13 12 11 11 12 11 11 11 13 13 14 15 16 17 18 20 21 21
31 29 29 31 35 37 35 33 32 30 27 23 18 15 14 16 16 15 16 17 16 17 18 16 12 10 10 10 11 11 11 12 11 10 11 12 13 19 24 24 28 30 25 20 17 16 18 19 19 21 24 25 26 28 26 25 26 25 24 22 19 18 18 17 17 15 13 12 10 8 8 8 8 9 10 10 11 11 12 13 14 15 19 22 24
30 28 29 31 35 37 37 37 38 34 28 21 16 14 15 16 16 15 15 15 15 15 15 12 10 11 11 9 8 7 6 6 7 8 9 10 10 15 23 25 26 28 28 25 21 21 22 21 20 21 24 24 25 25 25 26 26 24 22 22 21 19 17 17 16 14 11 9 8 6 5 6 7 7 8 9 10 10 10 10 10 12 15 18 21
30 29 30 31 34 36 37 37 35 33 27 19 14 14 15 16 15 15 14 14 14 14 13 12 12 11 10 8 7 4 2 3 4 5 7 7 7 11 21 26 25 25 27 25 24 25 24 22 21 22 23 24 23 23 24 27 26 24 24 24 22 19 17 17 15 13 9 8 7 5 5 5 5 5 6 7 8 9 10 10 11 10 12 14 17
30 30 29 31 33 33 32 30 30 30 27 21 17 16 16 15 15 13 13 13 13 12 11 10 10 10 9 8 6 3 2 2 3 4 5 5 5 9 18 25 24 23 23 23 23 23 22 21 23 24 23 23 23 22 23 26 26 26 26 25 21 18 16 15 14 11 9 7 7 6 5 4 4 3 5 6 7 8 10 12 13 12 12 13 16
30 29 29 30 31 29 27 27 27 27 26 24 21 18 17 16 14 12 13 12 10 9 9 8 8 8 8 7 5 2 1 2 3 5 6 6 5 7 16 23 22 20 20 19 19 20 20 21 23 23 22 23 24 25 27 29 29 28 26 22 18 16 15 14 13 11 10 9 9 7 5 3 1 2 4 5 7 8 10 11 12 12 13 13 14
29 29 29 28 27 26 25 25 25 24 24 25 23 20 19 17 14 13 14 11 7 7 8 7 7 7 7 7 5 3 2 2 4 6 8 7 6 8 15 22 22 20 20 19 18 19 19 21 23 25 27 28 29 30 30 30 28 26 23 20 17 15 14 13 12 11 11 11 9 6 4 2 1 3 4 6 7 8 10 10 10 12 13 11 9
28 27 26 24 24 24 23 23 24 23 23 25 24 23 22 18 15 14 14 10 7 9 10 8 7 7 7 7 6 3 3 4 5 8 9 9 9 10 15 22 24 22 21 21 21 21 22 23 25 29 30 30 30 30 29 26 24 21 20 18 17 15 14 13 12 12 12 11 9 6 4 3 3 4 5 6 7 8 10 10 10 11 11 8 8
27 25 24 23 23 23 23 23 23 22 22 22 23 25 24 19 14 14 13 11 11 11 9 8 8 6 7 8 7 5 4 4 5 8 10 10 10 11 15 23 26 24 24 26 26 25 22 18 18 23 29 30 29 28 26 24 22 19 18 17 16 16 15 14 14 13 12 10 8 6 5 4 4 4 5 6 7 8 10 10 10 10 8 7 8
26 25 24 24 23 24 23 23 23 23 22 21 20 21 22 20 16 14 12 11 11 10 8 8 10 7 6 8 8 5 3 3 3 8 12 12 12 13 17 24 27 26 29 31 27 21 18 15 14 19 27 29 27 26 25 24 22 20 18 16 16 16 16 15 14 13 11 10 8 6 5 4 3 4 5 6 7 8 9 10 10 10 8 7 8
26 25 25 24 24 23 22 22 22 22 22 21 19 18 19 18 16 15 14 11 9 8 9 10 10 9 6 6 6 4 3 3 4 9 13 14 15 16 20 26 28 28 31 31 24 18 18 17 14 14 19 21 23 25 25 23 22 21 19 17 16 16 17 16 14 13 11 10 8 6 5 4 3 4 5 6 7 8 9 10 11 11 9 7 7
27 25 24 23 23 23 21 21 21 20 20 20 19 18 17 15 13 14 15 12 8 7 9 11 11 9 7 4 3 3 5 6 7 10 13 15 16 18 22 27 28 28 29 28 21 16 17 18 15 15 17 19 22 24 23 22 22 22 20 18 18 18 18 16 14 12 11 9 8 7 5 3 3 4 5 7 7 8 9 11 11 10 8 7 8
25 23 23 23 22 21 20 20 20 20 20 19 18 18 18 16 14 12 12 11 9 8 10 12 12 9 6 4 1 3 6 7 8 11 14 15 16 20 24 27 26 25 28 28 23 18 16 15 14 15 19 21 23 23 22 21 22 21 19 18 19 19 18 16 14 12 11 9 8 7 5 3 3 3 4 6 7 7 9 10 9 8 7 7 9
22 21 21 22 21 20 20 20 20 20 20 19 18 18 18 18 15 10 8 8 8 8 10 13 13 9 7 6 4 5 7 8 10 13 15 16 18 22 24 22 18 17 21 26 25 22 20 18 15 15 19 22 23 23 22 22 22 21 20 20 20 20 18 16 14 13 11 10 8 6 4 3 3 3 4 6 6 7 7 8 8 8 8 7 8
21 20 19 19 19 20 20 20 19 19 19 19 20 19 18 17 15 9 7 8 9 8 9 12 11 10 8 7 6 6 7 8 10 13 16 18 20 22 20 15 12 13 16 19 22 22 23 23 21 20 22 23 23 24 24 24 24 22 22 22 22 21 19 17 15 14 12 10 8 6 4 3 2 3 4 5 6 7 8 9 10 10 9 9 10
21 18 18 19 19 20 21 20 19 19 19 20 19 18 16 16 14 9 6 8 9 8 8 9 10 10 9 9 8 7 8 9 11 14 16 18 19 20 20 18 16 15 14 17 20 21 21 22 23 23 23 24 25 25 25 25 24 23 22 23 22 21 19 17 15 13 12 10 8 6 4 3 1 2 4 4 6 7 8 10 11 11 11 11 11
19 17 18 20 20 19 19 19 18 18 18 17 17 16 15 15 14 9 7 7 8 7 7 7 8 8 8 9 8 8 8 10 12 13 14 16 19 21 22 22 19 15 13 15 19 20 20 21 23 24 25 25 26 26 25 25 24 23 22 22 21 19 17 15 14 13 11 9 8 6 4 3 2 2 4 5 5 7 8 10 11 13 13 12 10
18 18 20 21 19 17 17 17 17 17 16 15 15 15 14 14 13 10 8 7 6 5 6 6 6 7 8 7 7 7 7 7 8 9 11 17 23 25 23 21 19 16 14 15 17 19 20 21 23 24 25 26 26 26 26 26 25 24 23 22 20 18 17 16 15 14 12 10 8 6 5 4 3 2 3 4 5 6 8 9 10 12 12 12 11
18 17 18 19 17 16 16 16 15 15 15 15 15 14 13 13 13 11 8 6 5 4 4 5 5 7 8 6 5 7 7 7 9 10 11 15 21 24 23 21 20 18 17 17 18 20 21 22 23 24 25 25 26 26 26 26 25 24 23 22 21 19 18 16 15 13 12 10 9 7 6 5 3 3 3 4 5 6 8 9 10 11 12 12 14
19 16 16 17 16 15 16 15 14 15 15 14 14 13 12 12 13 11 7 5 4 4 4 4 5 7 8 5 6 8 9 8 9 10 10 11 14 18 20 21 21 20 20 19 19 21 23 23 24 25 25 25 25 25 25 24 24 24 23 22 21 20 18 16 15 13 11 10 9 7 6 5 4 3 3 3 4 6 8 9 9 11 12 12 15
21 17 17 18 17 16 15 14 13 14 14 13 13 12 11 12 12 9 5 4 4 4 4 4 5 8 8 7 9 10 10 9 9 9 9 9 11 13 16 18 20 20 19 18 19 21 23 24 23 24 24 24 24 25 24 24 24 24 24 23 22 19 18 16 15 13 11 10 9 8 6 5 4 3 2 3 4 5 7 9 10 11 12 13 15
20 18 18 19 18 15 14 13 13 13 12 13 13 11 11 12 10 6 3 3 3 4 4 3 4 6 7 8 9 10 10 9 8 8 8 8 10 13 14 17 18 18 17 16 18 20 22 21 21 22 22 22 22 23 23 23 24 24 24 22 21 19 18 17 15 14 12 11 9 8 6 5 4 3 2 2 3 5 7 8 11 12 12 13 15
19 19 18 18 16 15 14 14 13 13 13 13 12 11 11 10 6 3 2 3 3 4 4 4 4 4 4 6 7 8 8 8 8 8 8 8 10 14 15 16 17 17 16 15 17 18 19 19 19 19 19 19 20 20 21 21 21 22 21 20 19 18 17 15 14 13 12 10 9 8 7 5 4 2 1 1 3 5 7 9 11 13 13 14 15
19 19 18 17 16 15 15 15 14 13 13 12 11 10 9 7 4 3 3 4 4 4 4 4 4 4 4 5 6 6 7 7 7 8 8 7 9 13 15 15 16 16 16 16 16 17 17 17 18 18 18 19 20 19 19 19 18 17 17 16 15 14 13 12 11 10 10 9 8 7 6 4 3 1 0 2 4 5 7 10 12 13 14 15 15
18 18 16 16 15 15 15 16 16 16 16 14 11 9 8 6 5 5 5 5 4 5 5 4 4 4 5 5 5 5 6 7 7 8 7 7 8 11 14 15 15 15 15 16 16 15 14 15 17 18 19 21 21 20 19 18 16 15 13 12 10 10 10 10 10 10 9 9 7 6 5 3 1 0 1 3 5 6 8 10 12 13 14 14 15
18 17 15 16 15 15 16 17 18 19 18 15 12 11 9 7 5 5 5 6 6 5 5 5 5 5 5 5 5 6 6 7 8 9 10 10 10 12 14 14 14 14 14 15 14 13 13 14 16 18 20 21 20 19 18 17 15 14 13 11 10 10 10 10 11 10 9 8 7 5 4 2 1 1 2 3 5 6 8 10 11 12 14 14 14
18 17 16 17 17 17 18 18 18 18 18 15 13 12 9 7 6 6 6 7 7 6 5 5 5 5 5 5 6 7 8 8 10 11 11 11 12 12 13 12 12 13 14 14 14 13 13 14 17 18 19 19 18 17 17 16 15 14 14 13 12 12 11 11 11 9 8 7 6 4 3 2 1 2 2 3 5 6 8 10 11 12 14 14 14
18 18 18 19 18 18 18 18 17 16 16 15 14 12 10 7 7 7 7 7 7 6 5 5 6 6 6 7 8 8 8 9 11 11 11 11 12 13 13 12 13 14 14 14 13 13 13 15 17 18 18 18 17 16 16 16 15 15 14 13 12 12 11 10 9 8 7 6 4 3 3 2 2 2 2 3 5 6 8 9 10 12 14 13 14
18 19 19 18 19 19 18 17 16 16 16 16 15 13 11 9 8 8 8 7 6 6 5 6 6 7 7 7 7 7 7 9 10 11 11 12 12 12 12 12 12 12 13 12 12 12 14 16 17 18 17 17 16 15 15 14 14 13 12 11 11 11 11 9 8 7 6 5 4 3 3 2 2 1 2 4 6 7 9 10 11 12 13 13 14
20 20 18 18 19 18 17 17 16 16 17 17 15 14 13 11 9 8 7 7 6 6 6 7 7 8 8 8 8 8 9 10 12 11 11 12 11 11 10 10 10 11 11 11 12 13 14 16 17 17 16 15 14 13 13 13 12 12 11 10 10 10 9 8 8 7 5 5 4 3 2 2 1 2 4 6 7 9 10 12 12 12 13 13 13
Wind_Direction
306 305 304 303 301 301 302 303 302 300 300 299 297 294 290 287 285 286 285 282 280 278 276 275 274 271 268 269 271 269 270 273 272 266 255 244 239 238 235 227 222 221 219 220 224 222 220 219 217 214 212 208 206 204 202 199 197 194 190 190 193 196 196 200 210 213 197 188 186 193 207 217 223 228 235 245 250 253 254 253 256 258 261 265 266
306 305 305 302 301 302 304 305 304 302 301 299 297 294 289 285 282 281 281 280 278 275 274 274 275 275 270 266 265 261 261 266 267 264 257 248 241 237 234 229 224 221 217 221 225 223 220 220 217 215 213 210 206 203 200 198 196 193 188 187 192 195 194 195 199 205 203 195 195 205 212 218 229 233 236 245 249 252 256 258 260 261 263 267 268
305 305 305 301 301 302 303 304 304 303 301 297 296 293 290 286 283 278 276 277 275 272 272 272 273 274 272 267 264 259 255 257 260 260 258 252 243 236 233 230 225 220 218 224 226 222 219 219 217 214 211 209 207 204 201 199 198 196 193 190 192 194 194 194 193 195 201 200 198 204 212 218 227 235 240 248 252 255 260 264 268 269 269 270 271
305 304 303 301 301 302 302 303 303 301 300 297 295 292 290 287 284 279 276 275 274 272 272 272 272 273 273 270 267 262 255 252 255 257 257 254 247 238 234 231 227 225 226 227 226 221 218 218 216 213 210 208 207 204 202 199 197 196 194 191 193 193 190 191 193 193 195 202 203 203 210 216 223 231 239 248 254 256 262 268 272 272 272 272 273
304 303 301 299 300 301 301 300 299 299 297 295 292 290 289 287 284 282 280 277 276 275 273 272 272 272 272 271 269 266 262 255 254 256 255 255 251 243 238 234 231 231 231 230 226 220 219 218 215 211 208 207 206 204 201 199 197 197 196 192 190 188 185 188 193 195 196 201 205 206 210 216 223 229 231 240 250 254 259 264 267 270 271 272 273
303 301 299 299 300 301 300 298 297 298 296 294 292 289 288 287 285 283 280 278 276 275 274 272 273 273 271 271 268 266 265 260 256 256 254 253 252 247 241 236 233 233 233 231 226 220 219 218 214 209 207 207 206 203 201 199 198 199 197 191 184 183 185 187 190 194 201 206 207 208 211 215 222 227 227 232 242 251 258 263 264 265 268 270 271
301 299 297 299 301 302 302 301 299 296 293 292 289 285 283 283 283 280 276 275 273 272 273 274 275 274 271 271 267 263 264 260 256 255 252 251 250 247 241 235 233 234 232 230 226 221 219 218 213 209 208 208 208 205 202 201 200 201 199 192 183 181 184 187 191 194 199 205 210 214 217 219 223 228 228 230 239 248 256 263 267 265 264 267 270
305 303 302 303 303 303 304 303 300 297 292 289 285 281 277 276 278 277 272 270 269 270 273 273 274 273 271 270 266 261 260 257 253 252 252 252 250 245 239 234 232 231 230 228 224 220 219 217 214 212 211 211 211 209 207 205 202 201 198 194 188 183 185 188 189 193 198 203 208 213 215 218 222 226 228 229 237 245 248 256 267 272 272 274 274
308 305 304 303 302 302 302 300 297 294 291 288 284 280 277 274 274 274 271 269 269 271 272 272 271 270 269 269 264 260 258 254 251 253 255 255 250 242 236 232 229 227 226 224 221 218 217 216 215 214 213 213 212 212 212 210 206 201 196 195 190 181 183 188 187 189 196 202 206 209 212 217 219 221 224 225 234 247 253 259 269 275 279 280 279
307 304 303 303 302 300 297 294 292 290 289 288 285 282 279 275 274 275 274 273 272 271 271 268 266 267 267 264 259 257 255 251 251 256 258 256 250 241 233 228 225 222 221 218 215 214 214 213 214 213 214 214 214 214 214 212 210 207 203 200 194 185 181 184 188 192 195 198 204 204 206 213 216 220 226 231 243 256 260 262 271 278 282 283 282
304 303 305 304 301 297 294 292 289 288 289 290 288 285 280 275 273 274 276 276 274 271 270 267 263 264 264 261 257 255 253 251 252 256 258 253 246 238 229 223 219 216 216 213 210 209 208 208 210 210 212 213 212 213 213 209 208 209 209 208 203 198 192 185 183 190 194 197 201 201 206 215 218 222 229 240 254 258 256 260 270 279 282 282 284
301 302 305 304 301 299 297 294 291 290 293 294 292 287 280 274 271 272 274 275 274 272 270 267 264 263 263 261 260 258 255 254 255 257 258 253 246 237 227 220 214 211 212 211 207 205 203 202 205 207 209 209 209 210 210 207 205 205 210 212 210 208 206 200 194 191 191 195 199 201 206 212 218 226 232 244 254 253 252 259 268 275 277 278 280
303 304 306 306 306 307 305 302 299 298 297 296 293 288 280 272 269 271 273 273 273 272 270 268 268 266 263 261 261 260 257 255 255 255 257 255 248 238 225 216 212 210 210 209 206 203 201 199 200 204 206 206 207 207 206 205 202 200 205 209 208 209 211 211 208 203 197 194 195 203 212 218 225 229 222 225 238 245 253 262 269 274 275 274 277
307 308 310 311 312 311 309 307 304 301 297 294 291 285 277 273 271 272 274 274 273 272 269 269 269 267 267 265 265 265 262 257 257 256 255 255 250 240 226 214 211 212 209 206 204 202 201 200 198 199 201 201 202 203 202 199 197 196 197 199 200 202 205 208 210 210 208 207 207 213 217 216 217 220 222 236 256 261 262 266 271 275 274 275 278
314 316 316 314 313 313 311 310 305 300 297 294 290 284 277 277 277 276 276 275 274 272 270 269 269 269 271 272 270 270 267 262 261 259 256 255 251 243 229 212 207 209 207 206 204 202 202 201 199 198 198 197 197 198 196 193 191 191 191 190 191 193 199 204 206 207 209 209 211 216 220 222 229 240 252 265 265 255 253 262 270 275 278 279 279
320 320 318 316 317 317 313 309 304 299 296 294 294 292 286 282 280 277 277 277 276 273 270 269 268 268 270 272 272 272 270 267 264 260 258 257 252 243 228 207 200 203 202 201 202 201 201 201 199 197 197 196 194 192 192 189 187 185 183 183 186 188 195 201 203 205 206 206 214 224 228 230 233 237 244 247 244 250 262 270 273 275 277 279 278
320 319 318 319 322 319 312 305 299 295 293 293 296 296 291 286 284 281 280 279 277 272 268 266 265 267 269 271 273 273 271 269 263 258 259 258 250 240 220 195 191 195 195 196 198 197 198 200 199 197 196 195 191 190 190 187 184 181 177 177 180 182 189 195 196 201 206 208 213 216 210 206 211 229 246 252 256 266 275 276 274 275 275 274 276
320 318 317 321 321 317 310 303 297 293 292 293 293 291 291 291 291 288 282 278 275 271 268 266 265 269 271 271 270 271 271 271 264 258 260 255 246 235 205 180 181 186 187 192 194 193 194 199 200 197 195 194 190 189 189 185 182 182 179 176 175 177 186 193 194 195 200 204 208 210 213 225 240 254 265 267 269 274 276 273 273 274 271 267 272
320 317 316 319 318 314 310 306 302 296 292 290 288 287 290 293 294 290 282 277 275 271 269 268 265 265 267 268 266 264 267 270 268 264 260 249 241 225 189 171 173 176 178 181 186 189 192 194 196 198 198 196 191 189 189 185 184 184 182 176 173 179 190 194 196 201 205 210 219 227 234 244 252 258 264 268 272 276 275 273 272 266 261 262 268
320 318 318 318 316 312 310 307 303 297 291 286 283 283 287 291 291 286 280 276 276 274 271 269 268 265 263 266 266 263 263 267 269 266 257 247 237 212 180 170 169 169 172 173 172 177 184 185 189 195 198 195 191 191 188 186 186 186 182 178 180 190 196 198 201 208 212 216 228 238 243 250 255 261 267 270 273 275 274 274 270 260 252 255 262
323 322 319 317 315 313 310 306 301 296 290 284 281 282 286 290 287 283 281 278 276 275 271 268 269 268 264 266 268 266 264 265 267 263 251 245 232 202 179 176 175 170 167 168 169 170 173 177 184 191 193 190 191 192 187 184 188 188 185 187 192 195 197 197 199 205 211 218 230 239 246 256 264 269 273 275 276 278 276 274 271 263 254 252 256
324 321 317 316 315 313 310 305 301 297 290 285 284 286 290 291 285 281 282 280 276 275 273 270 269 269 269 270 268 267 265 262 261 253 242 242 228 197 182 182 180 173 163 159 166 168 170 176 183 189 190 187 189 192 185 179 184 188 187 189 190 190 191 190 189 195 203 210 223 235 247 262 272 273 275 277 278 279 276 273 273 269 264 259 255
323 319 316 315 314 312 310 308 310 308 298 288 288 292 291 290 289 287 286 286 286 284 281 277 274 271 273 271 264 263 264 257 249 241 237 243 227 197 186 183 180 176 170 167 170 172 176 182 183 185 187 185 187 189 182 173 177 184 183 180 176 177 182 183 183 188 194 203 219 234 248 263 270 270 273 280 283 285 283 280 277 273 269 266 262
322 319 317 316 314 313 313 316 320 320 308 291 288 293 291 293 296 296 296 298 300 297 293 294 295 288 281 277 267 260 258 246 238 234 233 238 228 196 182 177 178 180 178 176 177 178 181 185 183 182 182 180 181 183 177 171 175 177 171 168 170 173 175 175 178 182 188 203 219 224 234 250 259 266 275 286 293 297 299 297 290 280 275 273 271
322 320 319 317 314 313 315 319 324 325 317 306 302 303 302 303 303 303 305 307 305 304 305 308 309 301 292 287 280 266 246 228 221 224 222 224 226 193 173 171 177 181 180 180 183 186 188 187 182 178 176 173 174 176 172 171 173 169 164 166 170 169 170 173 179 184 190 202 207 202 214 237 250 268 282 291 301 308 315 319 315 307 299 293 290
321 321 319 317 314 312 315 321 326 329 327 324 320 315 311 308 306 307 310 308 304 307 312 312 308 304 296 291 287 266 227 207 199 207 205 200 211 189 169 169 177 183 184 188 189 188 185 179 174 174 172 170 170 166 160 161 161 159 160 166 168 166 170 177 183 189 193 195 194 193 201 224 244 281 296 304 316 325 330 329 324 322 319 310 303
321 320 318 316 314 314 318 323 326 327 328 327 323 317 313 311 309 309 311 310 309 311 311 305 300 300 297 291 287 261 213 198 186 196 191 176 181 178 166 166 170 173 174 175 174 173 173 172 172 168 160 154 151 146 144 147 150 152 156 162 164 167 176 187 193 195 193 185 184 184 184 198 243 319 327 330 338 338 335 331 324 323 325 316 302
320 318 317 315 314 315 319 323 324 325 325 326 323 317 314 314 314 315 315 314 315 310 302 292 283 285 289 289 284 262 215 199 194 200 192 170 161 167 162 159 158 157 157 155 155 159 160 158 153 144 136 134 136 137 139 142 146 151 155 159 165 173 183 192 195 192 185 177 171 165 153 144 41 4 359 355 350 341 339 339 330 325 328 323 303
320 318 318 316 315 317 320 321 323 323 322 323 322 319 318 316 316 320 321 319 322 315 303 291 277 267 267 272 273 258 231 222 215 212 198 175 168 165 156 155 159 158 154 151 146 139 134 133 133 132 130 131 133 133 136 138 142 148 156 162 171 179 182 183 181 177 174 167 156 142 126 98 45 20 12 4 352 343 346 350 341 333 332 320 295
321 320 321 319 318 320 321 321 322 321 320 320 319 320 322 323 326 329 323 318 326 326 315 315 317 290 259 258 264 263 264 267 235 209 193 177 172 166 158 162 163 156 150 151 144 133 126 125 128 133 136 136 135 135 138 141 143 148 158 168 176 178 176 174 172 170 164 153 141 132 118 88 49 27 14 1 352 350 353 354 349 344 337 314 301
322 321 321 319 319 320 320 320 320 318 317 316 315 317 320 322 331 339 330 320 328 335 329 332 336 324 283 268 267 259 259 277 219 187 180 173 167 160 159 162 158 150 151 152 143 131 132 132 129 137 142 142 142 144 147 150 152 156 162 168 173 172 169 170 170 164 153 143 136 129 114 90 56 29 15 4 359 360 359 355 353 350 336 312 307
320 319 317 317 318 320 318 316 316 315 314 315 316 317 316 317 329 340 336 328 331 336 335 335 335 335 327 295 269 235 200 203 186 174 172 169 163 158 158 156 151 148 153 152 141 134 141 139 135 143 146 145 150 154 156 159 162 164 166 168 168 167 167 169 166 157 147 142 136 125 108 88 57 30 16 9 7 5 1 358 359 355 337 315 312
316 315 315 315 317 317 315 313 313 312 311 312 313 313 312 312 322 333 332 328 327 327 337 346 345 343 349 334 278 212 171 172 176 171 168 165 161 159 158 154 149 148 151 148 140 139 145 144 145 153 153 153 159 161 162 166 168 170 171 170 166 166 168 167 162 155 151 145 134 122 108 87 56 30 17 13 13 8 4 2 359 351 337 325 325
314 313 313 314 314 313 312 310 309 308 307 307 307 306 307 308 313 324 328 329 331 332 340 353 0 2 10 22 45 164 158 158 166 167 164 162 162 159 153 148 146 150 155 154 148 146 147 148 148 155 160 163 164 165 166 170 172 174 173 168 165 167 167 165 161 158 154 144 132 121 110 88 58 37 22 17 14 8 4 1 352 341 334 332 329
316 313 311 313 313 312 309 307 305 305 306 307 306 304 305 308 314 326 331 325 330 336 339 351 9 22 27 41 81 136 146 147 157 161 159 160 160 154 145 138 135 141 150 154 154 154 156 157 155 159 166 168 168 170 173 175 176 176 172 167 167 168 166 165 164 162 153 142 134 126 115 97 62 43 32 23 20 14 3 356 351 342 335 331 327
318 314 312 313 314 312 308 304 302 302 303 305 304 303 305 309 315 327 336 326 329 338 338 348 14 38 49 60 89 123 135 140 149 154 156 159 159 150 138 126 122 127 138 149 155 159 162 164 164 167 171 171 173 176 178 177 176 175 172 170 171 170 169 169 166 160 151 142 139 134 121 107 70 48 42 26 21 19 7 359 358 354 346 341 337
313 311 311 312 312 310 307 304 302 301 302 303 302 303 308 312 315 328 345 338 337 342 340 351 19 45 54 61 79 106 124 132 141 148 152 154 151 143 136 131 129 129 137 150 157 159 162 166 169 171 174 176 177 179 179 176 174 172 172 174 174 171 170 169 163 156 151 146 144 143 132 122 100 63 58 41 25 17 9 3 0 356 352 350 346
307 304 306 307 308 309 307 305 304 303 303 303 303 306 311 313 316 331 351 347 345 349 344 354 23 41 42 48 72 100 117 127 137 144 146 142 137 137 139 139 136 134 139 152 160 162 163 168 173 175 178 180 179 178 177 174 172 171 173 174 172 170 169 166 160 156 155 151 150 151 151 153 151 81 60 50 32 17 10 7 4 359 356 354 348
309 306 306 307 308 309 308 306 304 304 305 305 305 309 312 314 319 334 348 348 352 357 350 357 22 37 34 44 80 106 105 101 106 109 113 124 133 140 144 143 142 143 147 154 162 166 166 170 175 177 178 179 179 177 175 173 172 173 174 171 168 170 173 171 165 162 161 159 159 162 168 173 165 115 75 53 35 21 12 10 7 2 356 350 345
311 308 308 310 311 311 309 307 304 304 306 307 308 309 311 314 321 332 343 345 350 0 359 359 12 25 29 43 94 115 98 81 85 91 99 118 134 144 150 152 153 156 158 160 165 169 169 171 175 177 177 179 178 176 174 173 172 173 173 171 170 174 177 175 169 167 166 165 166 170 175 177 163 125 86 50 31 20 12 9 7 4 358 351 348
311 309 310 313 314 313 311 308 303 303 302 301 303 306 308 311 317 325 337 342 343 356 5 3 5 17 29 57 116 122 105 92 95 102 108 123 135 145 154 160 163 165 166 167 170 172 171 172 175 177 178 178 177 174 173 173 172 172 174 176 177 178 177 174 172 172 172 171 172 177 179 174 157 131 94 51 29 16 11 8 5 0 357 354 351
316 316 318 319 317 315 312 306 303 302 300 298 301 304 306 308 312 318 332 345 349 1 11 7 7 20 42 84 122 124 110 98 100 106 111 123 136 146 157 164 166 168 171 174 175 174 173 173 176 177 178 177 176 174 173 174 175 176 178 180 181 180 177 175 175 176 175 176 177 180 180 172 155 135 93 48 25 13 9 6 3 360 355 353 354
321 320 320 319 316 313 308 305 304 304 302 302 304 304 304 306 307 311 335 3 13 20 22 17 13 27 53 88 115 119 107 97 101 106 105 117 136 146 153 161 165 168 172 174 174 173 173 175 177 179 179 178 176 175 175 176 178 180 181 182 182 181 179 179 179 178 178 180 182 182 182 177 160 134 88 40 15 8 6 2 360 359 354 349 350
325 323 321 318 315 314 312 310 308 306 304 305 305 306 307 308 310 326 19 37 41 38 33 30 22 24 48 77 93 98 95 92 97 102 98 110 136 147 153 161 166 167 168 170 170 173 177 180 180 179 178 177 177 177 178 179 181 183 183 181 180 181 182 183 183 182 180 180 181 182 184 178 160 137 86 18 2 359 0 358 356 355 353 349 348
326 323 322 320 319 318 320 320 318 317 316 315 313 316 322 328 345 25 47 54 54 49 48 47 36 30 42 61 69 77 84 88 94 99 99 107 130 146 155 162 165 166 167 169 171 175 180 182 181 177 174 173 175 177 179 180 182 184 184 182 180 181 182 181 181 179 177 176 178 182 183 176 158 141 353 352 355 355 355 354 353 351 349 346 343
323 321 321 320 320 321 324 329 331 332 330 328 331 340 352 8 30 43 50 57 55 50 51 50 42 40 48 60 69 76 82 85 88 96 103 108 121 140 153 160 164 166 167 167 170 173 175 176 176 174 172 172 174 176 177 177 178 179 179 179 178 175 174 173 174 173 172 172 173 174 177 175 167 47 321 340 349 352 352 351 349 347 343 339 337
324 323 322 322 324 327 331 335 340 339 336 339 352 3 7 16 31 42 50 56 54 51 46 42 46 53 55 63 77 80 80 86 97 107 115 119 125 139 151 158 161 163 162 161 162 164 167 170 173 174 172 171 172 172 171 170 169 170 169 168 167 168 169 169 171 171 169 170 171 172 177 187 238 308 324 339 345 346 346 343 340 339 338 337 336
326 327 329 332 336 338 338 340 342 339 337 344 0 8 7 11 21 30 41 47 46 44 43 40 48 56 61 73 91 95 93 98 108 114 120 124 128 136 144 150 152 153 155 156 158 160 165 169 170 170 170 169 167 165 164 164 164 164 165 165 166 169 170 170 170 170 169 170 171 175 186 208 263 287 310 334 337 334 335 335 332 333 335 336 336
330 334 338 341 342 341 340 340 340 338 339 348 359 4 6 12 19 27 39 44 41 41 45 46 48 58 71 86 97 98 97 103 111 115 119 122 125 129 135 139 144 149 153 156 157 159 162 164 165 164 165 164 161 160 161 163 165 167 169 170 171 170 168 169 169 168 168 170 173 182 203 230 262 279 302 321 322 321 326 329 329 331 334 334 335
336 340 341 343 342 341 340 341 342 344 347 352 357 1 6 12 18 26 36 39 39 42 48 48 53 65 78 91 98 95 94 105 114 116 117 118 121 127 134 139 144 149 152 153 153 154 156 158 159 160 160 159 158 160 163 167 170 173 173 172 172 170 167 167 167 166 167 174 181 189 203 218 242 273 298 313 316 320 326 329 330 332 333 331 332
340 341 342 343 343 343 342 344 347 350 352 354 357 1 5 10 16 22 29 34 37 42 47 55 68 82 93 100 103 103 107 115 119 118 116 117 119 125 132 138 141 143 144 146 147 149 151 154 156 158 158 157 157 160 166 170 173 175 174 171 171 171 169 167 167 169 172 176 180 186 194 205 250 296 309 316 320 323 327 329 329 331 331 330 331